CW4874 Weather Reports


Display with metric or nautical units.
time (UTC)temp
F
wind
direction
speed
MPH
gust
MPH
rain 1hr
in
rain 24hr
in
rain mn
in
humidity
%
barometer
mb
20260506170440 51 270 5.0 12.0 0.00 0.00 0.00 52 1011.6
20260506165934 51 271 5.0 12.0 0.00 0.00 0.00 53 1011.5
20260506165426 51 266 4.0 11.0 0.00 0.00 0.00 54 1011.4
20260506164918 51 283 4.0 11.0 0.00 0.00 0.00 53 1011.6
20260506164415 51 250 5.0 11.0 0.00 0.00 0.00 54 1011.6
20260506163914 51 323 6.0 13.0 0.00 0.00 0.00 54 1011.5
20260506163415 51 355 5.0 13.0 0.00 0.00 0.00 53 1011.4
20260506163136 51 327 5.0 12.0 0.00 0.00 0.00 55 1011.4
20260506162414 51 280 6.0 13.0 0.00 0.00 0.00 54 1011.3
20260506161915 52 251 5.0 13.0 0.00 0.00 0.00 52 1011.3
20260506161412 52 281 4.0 10.0 0.00 0.00 0.00 53 1011.3
20260506160911 52 275 6.0 15.0 0.00 0.00 0.00 53 1011.4
20260506160410 52 276 6.0 15.0 0.00 0.00 0.00 51 1011.3
20260506155912 53 318 4.0 12.0 0.00 0.00 0.00 52 1011.1
20260506155410 53 54 5.0 11.0 0.00 0.00 0.00 52 1011.1
20260506154910 53 323 5.0 11.0 0.00 0.00 0.00 51 1011.1
20260506154631 53 290 5.0 9.0 0.00 0.00 0.00 51 1011.0
20260506154130 53 310 4.0 9.0 0.00 0.00 0.00 51 1011.1
20260506153632 53 339 4.0 15.0 0.00 0.00 0.00 52 1011.0
20260506152910 53 322 5.0 15.0 0.00 0.00 0.00 55 1011.0
20260506152408 53 5 5.0 15.0 0.00 0.00 0.00 54 1011.0
20260506151857 53 247 5.0 15.0 0.00 0.00 0.00 53 1011.0
20260506151356 53 22 6.0 11.0 0.00 0.00 0.00 53 1010.8
20260506150850 54 324 5.0 10.0 0.00 0.00 0.00 51 1010.8
20260506150344 53 279 5.0 10.0 0.00 0.00 0.00 52 1010.8
20260506145838 53 279 5.0 10.0 0.00 0.00 0.00 55 1010.8
20260506145332 52 5 5.0 10.0 0.00 0.00 0.00 52 1010.7
20260506144825 52 264 5.0 11.0 0.00 0.00 0.00 52 1010.7
20260506144541 53 322 5.0 11.0 0.00 0.00 0.00 51 1010.7
20260506143809 53 145 5.0 12.0 0.00 0.00 0.00 49 1010.6
20260506143308 53 300 4.0 11.0 0.00 0.00 0.00 50 1010.5
20260506142801 53 258 4.0 11.0 0.00 0.00 0.00 51 1010.5
20260506142254 52 346 5.0 10.0 0.00 0.00 0.00 50 1010.4
20260506142011 52 289 5.0 10.0 0.00 0.00 0.00 52 1010.5
20260506141241 52 249 4.0 10.0 0.00 0.00 0.00 51 1010.5
20260506140736 51 275 4.0 12.0 0.00 0.00 0.00 52 1010.4
20260506140454 51 311 5.0 12.0 0.00 0.00 0.00 51 1010.4
20260506135724 51 288 6.0 12.0 0.00 0.00 0.00 53 1010.3
20260506135429 51 317 6.0 14.0 0.00 0.00 0.00 52 1010.2
20260506134711 51 274 6.0 14.0 0.00 0.00 0.00 52 1010.1
20260506134432 51 279 7.0 16.0 0.00 0.00 0.00 53 1010.2
20260506133700 51 334 6.0 16.0 0.00 0.00 0.00 52 1010.3
20260506133153 51 258 4.0 11.0 0.00 0.00 0.00 52 1010.2
20260506132643 51 224 4.0 8.0 0.00 0.00 0.00 56 1010.2
20260506132142 50 267 3.0 10.0 0.00 0.00 0.00 56 1010.0
20260506131636 49 263 4.0 10.0 0.00 0.00 0.00 59 1010.0
20260506131123 49 279 5.0 10.0 0.00 0.00 0.00 60 1010.0
20260506130842 49 257 5.0 10.0 0.00 0.00 0.00 61 1009.9
20260506130109 49 257 4.0 8.0 0.00 0.00 0.00 63 1009.9
20260506125603 48 277 4.0 10.0 0.00 0.00 0.00 63 1009.8
20260506125102 48 292 4.0 10.0 0.00 0.00 0.00 65 1009.7
20260506124556 48 317 3.0 8.0 0.00 0.00 0.00 65 1009.7
20260506124049 47 300 3.0 8.0 0.00 0.00 0.00 64 1009.7
20260506123543 47 294 4.0 8.0 0.00 0.00 0.00 65 1009.6
20260506123302 47 319 5.0 10.0 0.00 0.00 0.00 64 1009.5
20260506122801 46 289 4.0 10.0 0.00 0.00 0.00 64 1009.5
20260506122021 46 292 3.0 6.0 0.00 0.00 0.00 67 1009.4
20260506121519 46 286 2.0 4.0 0.00 0.00 0.00 67 1009.1
20260506121235 45 342 2.0 7.0 0.00 0.00 0.00 67 1009.2
20260506120508 45 279 3.0 7.0 0.00 0.00 0.00 67 1009.2
20260506120000 45 308 3.0 6.0 0.00 0.00 0.00 66 1009.1
20260506115454 45 265 2.0 5.0 0.00 0.00 0.00 67 1009.0
20260506114941 45 312 2.0 5.0 0.00 0.00 0.00 66 1009.1
20260506114659 45 274 2.0 5.0 0.00 0.00 0.00 67 1009.2
20260506114158 45 294 2.0 5.0 0.00 0.00 0.00 68 1009.2
20260506113424 45 286 2.0 5.0 0.00 0.00 0.00 68 1009.0
20260506112911 45 278 2.0 6.0 0.00 0.00 0.00 67 1009.0
20260506112634 45 292 2.0 6.0 0.00 0.00 0.00 67 1008.9
20260506111900 44 274 2.0 6.0 0.00 0.00 0.00 67 1008.8
20260506111354 44 321 2.0 6.0 0.00 0.00 0.00 67 1008.9
20260506110848 44 330 2.0 6.0 0.00 0.00 0.00 67 1008.7
20260506110607 45 314 2.0 5.0 0.00 0.00 0.00 67 1008.6
20260506105831 45 334 2.0 6.0 0.00 0.00 0.00 66 1008.4
20260506105330 45 277 2.0 6.0 0.00 0.00 0.00 66 1008.4
20260506105035 45 296 2.0 5.0 0.00 0.00 0.00 66 1008.3
20260506104317 45 315 3.0 6.0 0.00 0.00 0.00 65 1008.3
20260506104033 46 284 3.0 6.0 0.00 0.00 0.00 65 1008.4
20260506103527 46 279 3.0 7.0 0.00 0.00 0.00 65 1008.1
20260506102800 46 318 3.0 7.0 0.00 0.00 0.00 65 1008.0
20260506102249 46 277 3.0 6.0 0.00 0.00 0.00 64 1008.0
20260506101747 46 300 3.0 6.0 0.00 0.00 0.00 65 1008.0
20260506101242 46 296 2.0 7.0 0.00 0.00 0.00 65 1008.0
20260506100729 46 287 3.0 6.0 0.00 0.00 0.00 65 1007.9
20260506100446 46 294 2.0 6.0 0.00 0.00 0.00 65 1007.9
20260506095718 46 271 2.0 5.0 0.00 0.00 0.00 66 1007.9
20260506095211 46 315 2.0 4.0 0.00 0.00 0.00 65 1007.8
20260506094706 46 317 2.0 4.0 0.00 0.00 0.00 65 1007.7
20260506094200 46 295 1.0 3.0 0.00 0.00 0.00 65 1007.8
20260506093649 46 299 1.0 4.0 0.00 0.00 0.00 65 1007.7
20260506093148 47 296 2.0 4.0 0.00 0.00 0.00 66 1007.6
20260506092641 47 298 2.0 4.0 0.00 0.00 0.00 65 1007.5
20260506092136 47 306 2.0 4.0 0.00 0.00 0.00 64 1007.4
20260506091851 47 315 2.0 4.0 0.00 0.00 0.00 64 1007.3
20260506091124 47 276 2.0 7.0 0.00 0.00 0.00 65 1007.5
20260506090618 47 288 2.0 7.0 0.00 0.00 0.00 64 1007.6
20260506090107 47 317 2.0 4.0 0.00 0.00 0.00 64 1007.5
20260506085606 47 314 2.0 4.0 0.00 0.00 0.00 64 1007.3
20260506085100 47 0 2.0 4.0 0.00 0.00 0.00 64 1007.3
20260506084554 47 275 3.0 4.0 0.00 0.00 0.00 63 1007.2
20260506084047 47 287 2.0 6.0 0.00 0.00 0.00 64 1007.1
20260506083537 47 252 2.0 6.0 0.00 0.00 0.00 63 1007.4
20260506083035 47 285 2.0 6.0 0.00 0.00 0.00 64 1007.3
20260506082526 47 307 2.0 4.0 0.00 0.00 0.00 64 1007.4
20260506082023 47 331 2.0 6.0 0.00 0.00 0.00 64 1007.3
20260506081518 47 319 3.0 6.0 0.00 0.00 0.00 64 1007.3
20260506081242 47 284 3.0 6.0 0.00 0.00 0.00 63 1007.2
20260506080506 47 275 3.0 6.0 0.00 0.00 0.00 64 1007.2
20260506072923 48 257 3.0 6.0 0.00 0.00 0.00 63 1007.5
20260506072418 48 308 3.0 6.0 0.00 0.00 0.00 63 1007.3
20260506071912 48 254 2.0 5.0 0.00 0.00 0.00 64 1007.3
20260506071405 48 273 2.0 5.0 0.00 0.00 0.00 64 1007.3
20260506070855 48 277 2.0 6.0 0.00 0.00 0.00 64 1007.1
20260506070353 48 274 2.0 6.0 0.00 0.00 0.00 64 1007.2
20260506062306 48 291 2.0 5.0 0.00 0.00 0.00 64 1007.6
20260506061759 48 302 2.0 5.0 0.00 0.00 0.00 64 1007.5
20260506061513 48 301 3.0 8.0 0.00 0.00 0.00 64 1007.6
20260506061009 48 292 3.0 8.0 0.00 0.00 0.00 64 1007.5
20260506060242 48 271 2.0 6.0 0.00 0.00 0.00 65 1007.6
20260506051142 49 305 1.0 4.0 0.00 0.02 0.00 64 1007.5
20260506050631 49 300 2.0 4.0 0.00 0.02 0.00 64 1007.4
20260506050130 49 257 2.0 4.0 0.00 0.02 0.00 64 1007.6
20260506045119 49 270 1.0 4.0 0.00 0.02 0.00 64 1007.5
20260506044612 49 284 1.0 4.0 0.00 0.02 0.00 64 1007.6
20260506044105 49 240 1.0 3.0 0.00 0.02 0.00 64 1007.6
20260506043600 49 275 1.0 3.0 0.00 0.02 0.00 64 1007.5
20260506043308 49 261 0.0 2.0 0.00 0.02 0.00 65 1007.4
20260506042547 49 261 1.0 4.0 0.00 0.05 0.00 65 1007.5
20260506042041 49 256 1.0 4.0 0.00 0.08 0.00 63 1007.5
20260506041536 49 271 1.0 3.0 0.00 0.08 0.00 64 1007.4
20260506041520 49 282 2.0 6.0 0.00 0.08 0.00 62 1007.5
20260506040519 49 284 2.0 6.0 0.00 0.08 0.00 61 1007.4
20260506040013 49 243 2.0 5.0 0.00 0.08 0.00 60 1007.4
20260506035722 49 273 2.0 4.0 0.00 0.08 0.08 60 1007.3
20260506035002 49 247 2.0 6.0 0.00 0.08 0.08 59 1007.2
20260506034456 49 284 2.0 6.0 0.00 0.08 0.08 59 1007.2
20260506033951 49 281 2.0 5.0 0.00 0.08 0.08 60 1007.2
20260506033444 49 291 1.0 4.0 0.00 0.08 0.08 60 1007.3
20260506032939 49 284 0.0 3.0 0.00 0.08 0.08 63 1007.1
20260506032432 49 270 0.0 1.0 0.00 0.08 0.08 64 1007.2
20260506031923 49 270 0.0 1.0 0.00 0.08 0.08 63 1007.3
20260506031420 49 270 0.0 2.0 0.00 0.08 0.08 61 1007.4
20260506031135 49 270 0.0 2.0 0.00 0.08 0.08 62 1007.5
20260506030409 49 279 0.0 2.0 0.00 0.08 0.08 62 1007.6
20260506025902 50 279 0.0 2.0 0.00 0.08 0.08 62 1007.5
20260506025352 50 266 0.0 2.0 0.00 0.08 0.08 62 1007.4
20260506024851 50 272 1.0 2.0 0.00 0.08 0.08 60 1007.3
20260506024344 50 282 0.0 2.0 0.00 0.08 0.08 61 1007.3
20260506023839 50 276 0.0 2.0 0.00 0.08 0.08 62 1007.4
20260506023600 50 283 1.0 3.0 0.00 0.08 0.08 61 1007.5
20260506022827 50 283 1.0 3.0 0.00 0.08 0.08 60 1007.5
20260506022548 50 285 1.0 3.0 0.00 0.08 0.08 60 1007.5
20260506021810 50 281 1.0 3.0 0.00 0.08 0.08 60 1007.4
20260506021308 50 296 0.0 3.0 0.00 0.08 0.08 58 1007.3
20260506020802 51 290 0.0 2.0 0.00 0.08 0.08 58 1007.3
20260506020257 51 290 1.0 3.0 0.00 0.08 0.08 57 1007.3
20260506015750 51 290 1.0 3.0 0.00 0.08 0.08 55 1007.3
20260506015240 51 318 2.0 5.0 0.00 0.08 0.08 55 1007.2
20260506014739 51 249 2.0 5.0 0.00 0.08 0.08 54 1007.2
20260506014232 51 319 3.0 7.0 0.00 0.08 0.08 54 1007.1
20260506014208 51 284 3.0 7.0 0.00 0.08 0.08 54 1006.9
20260506013445 51 288 3.0 7.0 0.00 0.08 0.08 53 1006.9
20260506012710 51 283 2.0 7.0 0.00 0.08 0.08 53 1007.0
20260506012209 51 284 2.0 6.0 0.00 0.08 0.08 54 1006.9
20260506011658 51 292 3.0 6.0 0.00 0.08 0.08 53 1006.7
20260506011156 52 290 3.0 6.0 0.00 0.08 0.08 53 1006.8
20260506010651 52 257 3.0 7.0 0.00 0.08 0.08 54 1006.7
20260506010402 52 314 3.0 7.0 0.00 0.08 0.08 52 1006.8
20260506005638 52 296 2.0 6.0 0.00 0.08 0.08 52 1006.8
20260506005128 52 273 2.0 5.0 0.00 0.08 0.08 52 1006.7
20260506004626 52 277 2.0 5.0 0.00 0.08 0.08 52 1006.8
20260506004120 52 228 3.0 7.0 0.00 0.08 0.08 54 1006.8
20260506003610 52 205 4.0 8.0 0.00 0.08 0.08 51 1006.8
20260506003108 52 277 3.0 8.0 0.00 0.08 0.08 51 1006.9
20260506002818 52 251 2.0 6.0 0.00 0.08 0.08 53 1006.8
20260506002056 53 318 3.0 7.0 0.00 0.08 0.08 54 1006.9
20260506001545 53 288 4.0 9.0 0.00 0.08 0.08 52 1006.8
20260506001044 53 275 3.0 9.0 0.00 0.08 0.08 53 1006.9
20260506000538 53 282 3.0 6.0 0.00 0.08 0.08 58 1006.8
20260506000033 53 259 3.0 6.0 0.00 0.08 0.08 56 1006.7
20260505235749 53 290 2.0 6.0 0.00 0.08 0.08 55 1006.6
20260505235032 53 278 2.0 6.0 0.00 0.08 0.08 57 1006.7
20260505234534 53 293 3.0 7.0 0.00 0.09 0.08 55 1006.4
20260505234033 53 238 3.0 7.0 0.00 0.09 0.08 56 1006.4
20260505233528 53 291 3.0 7.0 0.00 0.09 0.08 54 1006.3
20260505233028 53 277 3.0 7.0 0.00 0.15 0.08 54 1006.2
20260505232528 54 271 3.0 6.0 0.00 0.16 0.08 56 1006.2
20260505232028 54 245 3.0 8.0 0.00 0.16 0.08 55 1006.1
20260505231529 54 289 3.0 8.0 0.00 0.16 0.08 53 1006.2
20260505231026 54 250 2.0 7.0 0.00 0.18 0.08 55 1006.2
20260505230754 54 294 3.0 7.0 0.00 0.23 0.08 54 1006.2
20260505230023 54 252 3.0 6.0 0.00 0.24 0.08 54 1006.2
20260505225524 54 257 3.0 9.0 0.00 0.24 0.08 53 1006.2
20260505225024 54 290 4.0 10.0 0.00 0.24 0.08 53 1006.3
20260505224745 54 271 5.0 13.0 0.00 0.24 0.08 53 1006.3
20260505224027 54 293 5.0 13.0 0.00 0.24 0.08 53 1006.3
20260505223525 55 282 4.0 9.0 0.00 0.24 0.08 54 1006.2
20260505223019 55 313 4.0 9.0 0.00 0.24 0.08 54 1006.3
20260505222509 55 304 5.0 10.0 0.00 0.24 0.08 55 1006.4
20260505222227 55 269 4.0 10.0 0.00 0.24 0.08 55 1006.3
20260505221456 55 333 4.0 10.0 0.00 0.24 0.08 57 1006.4
20260505220949 55 292 4.0 9.0 0.00 0.24 0.08 57 1006.3
20260505220448 55 273 3.0 8.0 0.00 0.24 0.08 58 1006.2
20260505215948 55 281 3.0 6.0 0.00 0.24 0.08 59 1006.2
20260505215449 56 280 4.0 9.0 0.00 0.24 0.08 59 1006.2
20260505214948 56 298 4.0 9.0 0.00 0.24 0.08 59 1006.2
20260505214448 56 284 3.0 8.0 0.00 0.24 0.08 59 1006.2
20260505213948 56 286 3.0 9.0 0.00 0.24 0.08 60 1006.2
20260505213448 56 223 4.0 9.0 0.00 0.24 0.08 62 1006.3
20260505212948 56 264 4.0 9.0 0.00 0.24 0.08 64 1006.3
20260505212450 56 263 4.0 8.0 0.00 0.24 0.08 66 1006.2
20260505211951 56 251 3.0 8.0 0.00 0.24 0.08 69 1006.1
20260505211445 56 338 4.0 10.0 0.00 0.24 0.08 69 1006.1
20260505210932 56 189 5.0 11.0 0.00 0.24 0.08 68 1006.2
20260505210422 56 288 4.0 11.0 0.00 0.24 0.08 69 1006.2
20260505205911 56 180 3.0 11.0 0.00 0.24 0.08 70 1006.3
20260505205409 56 227 3.0 6.0 0.00 0.24 0.08 69 1006.4
20260505204910 56 247 3.0 6.0 0.00 0.24 0.08 70 1006.4
20260505204410 56 194 3.0 6.0 0.00 0.24 0.08 70 1006.3
20260505203910 55 246 4.0 10.0 0.00 0.24 0.08 70 1006.4
20260505203410 55 256 5.0 11.0 0.00 0.24 0.08 68 1006.4
20260505202910 55 271 4.0 11.0 0.00 0.24 0.08 69 1006.5
20260505202636 55 200 4.0 10.0 0.00 0.24 0.08 69 1006.4
20260505201911 56 289 4.0 10.0 0.00 0.24 0.08 67 1006.4
20260505201404 56 229 3.0 7.0 0.00 0.24 0.08 70 1006.4
20260505201121 56 174 3.0 9.0 0.00 0.24 0.08 71 1006.4
20260505200340 56 168 3.0 9.0 0.00 0.24 0.08 70 1006.4
20260505195828 56 267 3.0 7.0 0.00 0.24 0.08 70 1006.4
20260505195318 56 230 4.0 9.0 0.00 0.24 0.08 71 1006.4
20260505194818 56 264 3.0 9.0 0.00 0.24 0.08 70 1006.4
20260505194317 56 243 2.0 8.0 0.00 0.24 0.08 73 1006.4
20260505193819 55 252 2.0 4.0 0.00 0.24 0.08 73 1006.4
20260505193318 55 212 2.0 5.0 0.00 0.24 0.08 73 1006.5
20260505193306 54 275 2.0 8.0 0.00 0.24 0.08 73 1006.6
20260505192318 54 229 4.0 8.0 0.00 0.24 0.08 73 1006.6
20260505191820 54 213 4.0 8.0 0.00 0.24 0.08 72 1006.5
20260505191544 54 263 3.0 10.0 0.00 0.24 0.08 74 1006.6
20260505190814 53 272 3.0 10.0 0.00 0.24 0.08 75 1006.6
20260505190303 53 194 3.0 10.0 0.00 0.24 0.08 74 1006.6
20260505190248 53 219 3.0 8.0 0.00 0.24 0.08 75 1006.7
20260505185304 53 194 4.0 9.0 0.00 0.24 0.08 74 1006.8
20260505184802 53 279 4.0 9.0 0.00 0.24 0.08 74 1006.8
20260505184522 53 271 3.0 10.0 0.00 0.24 0.08 76 1006.8
20260505183802 53 254 3.0 10.0 0.00 0.24 0.08 75 1006.8
20260505183302 53 248 3.0 10.0 0.00 0.24 0.08 75 1006.8
20260505182804 53 284 4.0 11.0 0.00 0.24 0.08 75 1006.7
20260505182306 53 252 4.0 11.0 0.00 0.24 0.08 75 1006.6
20260505181758 53 238 4.0 12.0 0.00 0.24 0.08 75 1006.4
20260505181246 53 173 4.0 12.0 0.00 0.24 0.08 75 1006.4
20260505180746 53 246 4.0 9.0 0.00 0.24 0.08 76 1006.3
20260505180246 53 196 4.0 12.0 0.00 0.24 0.08 76 1006.3
20260505180008 52 273 3.0 12.0 0.00 0.24 0.08 76 1006.2
20260505175246 52 261 4.0 13.0 0.00 0.24 0.08 76 1006.1
20260505174746 52 189 4.0 13.0 0.00 0.24 0.08 76 1006.1
20260505174247 52 207 4.0 8.0 0.00 0.24 0.08 76 1006.0
20260505173746 52 269 3.0 8.0 0.00 0.24 0.08 78 1006.0
20260505173731 52 234 4.0 12.0 0.00 0.24 0.08 77 1005.9
20260505172959 51 193 3.0 12.0 0.00 0.24 0.08 78 1005.9
20260505172230 51 260 3.0 7.0 0.00 0.24 0.08 80 1005.8
20260505171730 51 276 3.0 7.0 0.00 0.24 0.08 79 1005.7
20260505171230 51 181 3.0 8.0 0.00 0.24 0.08 79 1005.8
20260505170730 51 208 3.0 8.0 0.00 0.24 0.08 79 1006.0